Wind_Speed
8 8 7 8 9 9 9 9 9 9 9 10 10 10 11 11 10 10 10 9 8 8 8 7 6 6 5 5 4 4 3 3 3 3 2 2 2 2 2 2 2 2 2
8 7 7 8 8 9 9 9 9 9 9 10 10 10 10 10 9 9 8 8 8 7 6 6 6 6 5 4 4 4 3 3 3 3 3 3 2 2 1 1 2 1 3
8 7 7 7 7 8 8 8 9 9 9 10 10 10 9 9 8 7 7 7 7 6 6 5 5 4 4 4 4 3 3 3 3 3 3 3 2 2 2 1 1 1 2
8 7 7 7 6 6 7 8 9 9 9 9 9 9 8 8 7 6 6 7 6 6 6 5 4 4 3 3 3 3 2 2 2 2 2 2 2 2 2 1 1 1 2
7 7 6 7 7 6 7 7 8 8 8 8 8 7 7 6 6 6 6 6 6 6 6 5 4 4 3 2 3 3 3 2 2 2 2 2 2 2 1 1 1 1 2
6 6 6 5 6 6 6 6 6 6 7 7 7 7 6 6 6 6 6 6 6 6 5 4 3 3 3 2 3 3 3 2 2 2 2 2 2 2 2 1 1 1 1
5 5 4 5 5 5 5 5 6 6 6 6 6 6 5 5 5 5 6 6 6 5 4 3 2 2 2 3 3 3 2 2 2 2 2 2 2 2 2 2 1 1 1
4 4 4 4 4 5 5 5 6 6 6 6 6 6 5 5 5 5 5 5 5 4 3 3 3 3 3 3 2 2 2 2 2 1 2 1 2 2 2 2 1 1 1
4 4 4 4 4 4 5 5 5 6 5 5 6 6 5 5 5 5 5 4 4 4 3 3 3 2 2 2 2 2 2 2 2 1 1 1 2 2 2 1 2 1 1
4 3 3 4 4 4 4 4 5 4 4 5 5 5 5 5 5 5 5 4 3 3 3 3 2 2 2 2 2 2 2 2 2 2 2 2 1 1 1 1 1 1 1
4 4 3 4 4 4 4 4 4 4 4 4 5 5 5 5 5 5 4 4 3 3 3 3 2 2 1 2 2 2 2 2 1 1 1 1 1 1 1 1 1 1 1
4 4 4 3 4 4 3 3 3 3 4 4 4 5 5 4 4 4 4 4 3 3 3 2 2 2 2 1 1 1 2 1 1 0 1 1 1 1 0 0 0 1 1
4 4 4 4 3 3 3 3 3 3 3 3 4 4 4 4 3 3 3 2 2 2 2 2 2 1 1 1 1 1 1 1 1 1 0 0 1 1 1 1 2 2 2
4 4 4 4 4 3 3 3 3 3 3 3 3 3 4 3 3 3 2 2 1 1 1 1 1 1 1 1 1 1 1 1 0 1 1 1 1 1 1 2 2 3 3
5 5 5 4 4 4 3 3 2 2 2 3 3 3 3 3 3 3 2 2 2 1 1 1 1 1 1 1 1 1 1 1 1 2 2 2 3 3 3 3 3 4 5
5 4 4 4 4 4 4 3 3 3 3 3 2 2 2 2 2 2 1 1 0 0 0 1 1 1 1 2 2 2 2 3 3 3 3 4 4 4 5 5 5 6 6
5 4 3 4 4 4 3 3 3 2 2 2 1 1 1 2 1 1 1 0 1 1 2 2 2 2 3 3 3 3 3 3 3 4 4 5 5 6 6 6 6 7 7
4 4 3 3 3 2 2 2 2 2 2 1 1 1 1 1 2 1 1 1 1 2 3 3 4 3 4 4 4 4 5 4 4 5 5 5 6 6 6 6 7 7 8
3 3 2 2 2 1 1 1 2 1 1 1 1 1 1 1 1 2 2 2 2 3 4 4 4 4 5 5 5 5 5 6 6 6 6 6 6 7 7 7 8 8 8
2 2 1 1 1 0 1 1 0 0 1 1 2 2 2 2 3 3 4 4 4 4 4 4 5 5 5 6 6 7 6 6 7 7 7 7 8 8 8 8 9 9 10
0 0 1 1 1 0 1 1 2 2 2 3 3 3 4 4 4 5 5 6 6 6 5 5 5 6 7 6 7 7 7 8 8 8 9 9 10 10 10 11 11 11 12
2 2 2 2 2 2 2 2 3 3 4 5 5 5 6 6 6 7 7 7 7 7 7 7 7 7 8 8 8 8 8 9 10 11 11 11 12 12 12 13 14 14 14
5 5 5 4 4 4 5 5 5 5 6 6 5 6 7 7 8 8 8 9 9 9 9 9 9 9 9 9 9 9 9 10 11 12 13 13 13 13 14 15 15 16 16
6 7 6 6 6 6 6 6 6 7 7 7 7 7 8 8 8 9 10 10 10 10 10 10 10 10 11 11 11 11 11 12 13 14 14 15 15 15 16 16 17 17 17
7 6 7 7 7 7 7 8 8 9 9 9 8 8 9 9 9 9 10 11 11 11 10 10 11 11 12 13 13 13 13 14 15 16 17 17 17 17 18 18 18 19 19
8 8 7 8 8 9 9 10 10 10 10 10 10 10 10 10 10 11 11 11 11 11 11 10 11 12 13 13 14 14 14 15 17 18 18 18 19 19 19 19 20 21 21
Wind_Direction
101 98 89 90 98 99 102 103 105 102 104 114 115 114 115 116 115 119 122 120 123 127 122 118 114 112 112 106 96 94 94 92 83 75 66 76 102 125 142 173 171 180 180
98 97 92 93 97 101 101 101 101 101 108 118 119 120 118 118 116 120 121 120 122 126 121 117 114 108 108 105 101 98 93 96 84 70 62 60 72 95 115 156 165 165 172
100 102 100 102 99 99 99 101 100 99 106 115 119 118 121 123 122 121 123 121 121 122 119 115 109 105 106 108 107 107 100 96 82 66 52 49 52 55 69 103 140 159 159
104 107 102 102 102 99 101 104 103 103 106 112 114 120 124 128 131 130 126 124 122 122 121 117 106 103 107 109 110 107 94 87 67 56 35 34 36 40 56 97 130 152 156
102 101 98 100 102 101 104 105 105 105 106 108 115 122 128 134 137 130 127 128 127 124 124 122 112 104 98 100 101 94 85 81 59 39 17 21 33 40 60 68 108 158 155
106 100 90 101 107 106 107 106 107 109 107 109 113 116 119 124 131 132 129 129 130 127 126 124 119 106 94 103 98 90 90 83 70 50 30 18 23 42 63 82 80 99 126
107 104 92 101 113 109 107 109 112 114 110 110 111 117 118 119 121 131 135 133 130 128 125 122 113 111 106 114 109 104 98 86 69 48 37 27 34 43 70 86 83 92 106
101 105 103 101 111 114 113 113 109 110 110 113 113 111 114 116 115 124 128 132 134 131 126 118 113 106 106 116 115 107 98 86 61 46 49 50 40 44 64 59 71 94 113
97 106 117 114 115 117 117 119 119 116 108 109 111 108 108 115 116 111 115 128 133 134 136 129 123 108 117 126 135 130 114 87 69 76 68 61 45 49 63 79 68 79 92
86 101 121 113 116 123 123 123 122 121 112 109 108 105 104 108 108 106 102 117 124 129 135 132 131 130 125 127 122 137 134 111 76 63 70 55 39 37 50 75 64 61 60
83 97 111 118 115 119 123 121 120 118 118 121 113 107 105 103 103 103 101 104 121 130 127 125 120 118 112 120 131 137 138 125 84 65 49 35 28 40 67 79 65 53 46
88 104 115 118 122 123 125 128 130 129 125 123 120 110 106 105 104 102 101 98 111 131 136 132 124 111 94 113 135 151 162 157 129 114 33 11 14 33 61 60 39 17 9
91 106 114 111 117 124 122 126 132 127 124 114 113 108 102 94 100 105 106 106 117 144 163 157 137 119 117 127 154 171 167 172 203 231 225 340 12 19 13 344 336 333 333
90 104 115 116 113 118 117 116 117 115 108 110 106 107 92 88 96 102 104 105 124 140 159 170 171 151 140 174 213 199 182 169 210 281 260 282 313 337 344 331 325 331 326
89 102 112 119 126 131 130 124 115 107 107 104 101 95 93 97 101 103 96 99 115 129 155 162 195 211 219 239 249 241 233 240 275 292 286 283 291 300 298 291 301 307 303
86 103 109 118 127 129 126 124 119 107 101 104 99 89 88 87 86 98 97 96 96 255 288 285 282 265 256 247 253 259 256 263 273 279 282 282 282 286 286 288 294 296 297
80 91 101 109 118 122 117 110 108 93 95 101 90 83 74 67 57 39 34 19 312 300 293 288 288 278 271 272 278 279 277 287 291 288 284 284 287 289 288 288 292 295 295
82 86 95 104 108 117 123 120 109 91 76 62 38 32 39 49 31 8 343 327 299 296 298 292 286 284 289 285 278 284 284 284 293 300 303 301 299 296 291 292 291 290 298
80 94 101 103 100 110 136 134 117 99 72 8 355 359 359 5 353 349 349 336 315 300 297 289 291 288 285 281 273 277 284 281 283 292 297 299 298 296 292 290 290 290 292
74 81 93 93 103 150 208 233 209 351 330 315 307 302 297 287 286 297 310 314 305 299 295 296 293 293 289 289 279 275 277 279 283 286 290 294 296 295 294 296 294 292 291
337 356 312 284 255 306 272 273 283 290 296 293 295 297 293 286 286 292 299 306 304 301 301 300 294 292 291 298 290 280 280 283 284 285 287 288 291 292 291 292 295 296 293
289 276 276 281 271 281 285 287 297 298 301 302 294 299 292 288 289 291 292 297 300 302 301 297 294 290 289 292 292 287 284 287 287 284 284 285 285 285 286 288 289 293 292
305 295 271 270 273 280 285 288 293 298 296 297 292 299 301 290 289 291 288 291 295 296 297 297 293 291 289 289 291 291 286 285 288 285 282 282 284 283 283 285 288 290 290
297 298 294 281 277 278 282 288 291 294 295 295 297 297 298 298 292 289 291 292 289 288 291 293 292 288 287 288 288 289 287 284 283 283 286 284 282 285 287 286 286 285 285
293 295 297 290 284 283 284 287 291 293 290 290 293 293 293 292 293 294 299 297 293 285 286 291 293 288 287 285 285 286 286 286 285 284 287 286 284 285 287 289 291 288 284
291 291 294 295 287 285 286 288 291 292 290 287 289 293 297 296 293 293 296 299 298 291 288 291 295 293 286 285 285 285 284 286 286 289 289 287 287 286 287 287 290 290 286
Height
5894 5894 5894 5893 5893 5893 5893 5893 5893 5893 5892 5892 5893 5893 5894 5895 5896 5897 5897 5898 5898 5898 5899 5899 5899 5899 5899 5900 5899 5899 5899 5899 5899 5899 5899 5898 5898 5897 5897 5897 5897 5897 5897
5896 5895 5895 5895 5895 5895 5895 5895 5895 5894 5893 5893 5894 5894 5895 5896 5897 5897 5898 5899 5899 5899 5899 5900 5900 5900 5900 5900 5900 5900 5900 5900 5900 5899 5899 5899 5898 5898 5897 5897 5897 5897 5897
5897 5897 5897 5896 5896 5896 5896 5896 5896 5895 5895 5895 5895 5896 5897 5897 5898 5898 5899 5899 5900 5900 5900 5900 5900 5900 5900 5901 5900 5900 5901 5901 5900 5900 5900 5899 5899 5898 5898 5897 5897 5897 5898
5898 5898 5898 5898 5898 5898 5897 5897 5897 5897 5897 5897 5897 5897 5898 5898 5898 5899 5899 5900 5900 5900 5900 5901 5901 5901 5901 5901 5901 5901 5901 5901 5901 5900 5900 5899 5899 5898 5898 5898 5898 5898 5898
5900 5900 5899 5899 5899 5899 5899 5899 5898 5898 5898 5898 5898 5898 5898 5899 5899 5899 5900 5900 5901 5901 5901 5901 5901 5901 5901 5901 5902 5902 5902 5902 5901 5901 5900 5900 5899 5899 5898 5898 5898 5898 5898
5901 5901 5900 5900 5900 5900 5900 5900 5900 5899 5899 5899 5899 5899 5899 5899 5900 5900 5900 5901 5901 5901 5902 5902 5902 5902 5902 5902 5902 5902 5902 5902 5902 5901 5900 5900 5899 5899 5899 5898 5898 5898 5898
5902 5902 5902 5901 5901 5901 5901 5901 5901 5901 5900 5900 5900 5900 5900 5900 5900 5900 5901 5901 5901 5902 5902 5902 5902 5902 5902 5902 5902 5902 5902 5902 5902 5901 5901 5900 5900 5899 5899 5899 5899 5899 5899
5903 5903 5903 5902 5902 5902 5902 5902 5902 5902 5901 5901 5901 5901 5901 5901 5901 5901 5901 5901 5902 5902 5902 5902 5902 5902 5902 5902 5902 5902 5902 5902 5902 5901 5901 5900 5900 5900 5899 5899 5899 5899 5898
5904 5904 5903 5903 5903 5903 5903 5903 5903 5903 5902 5902 5902 5902 5902 5901 5901 5901 5902 5902 5902 5902 5903 5903 5903 5903 5903 5903 5903 5903 5902 5902 5902 5901 5901 5900 5900 5900 5900 5899 5899 5899 5899
5904 5904 5904 5904 5904 5904 5904 5903 5903 5903 5903 5903 5903 5903 5902 5902 5902 5902 5902 5902 5902 5903 5903 5903 5903 5903 5903 5903 5903 5903 5902 5902 5902 5901 5901 5901 5900 5900 5900 5899 5899 5899 5899
5905 5905 5905 5905 5905 5905 5904 5904 5904 5904 5904 5904 5903 5903 5903 5903 5903 5902 5903 5903 5903 5903 5903 5903 5903 5903 5903 5902 5902 5902 5902 5902 5902 5901 5901 5901 5900 5900 5900 5899 5899 5899 5899
5906 5906 5905 5906 5906 5905 5905 5905 5905 5905 5904 5904 5904 5904 5904 5903 5903 5903 5903 5903 5903 5903 5903 5903 5903 5903 5902 5902 5902 5902 5902 5902 5902 5901 5901 5901 5900 5900 5900 5900 5899 5899 5899
5906 5906 5906 5906 5906 5906 5906 5906 5905 5905 5905 5905 5905 5904 5904 5904 5904 5904 5904 5903 5903 5903 5903 5903 5903 5903 5903 5903 5902 5902 5902 5902 5902 5901 5901 5901 5901 5900 5900 5900 5900 5899 5899
5907 5906 5907 5907 5907 5907 5906 5906 5906 5906 5906 5905 5905 5905 5905 5905 5904 5904 5904 5903 5903 5903 5903 5903 5903 5903 5902 5902 5902 5902 5902 5902 5901 5901 5901 5901 5901 5900 5900 5900 5899 5899 5899
5907 5907 5907 5907 5907 5907 5907 5907 5907 5906 5906 5906 5906 5905 5905 5905 5904 5904 5904 5904 5903 5903 5903 5903 5903 5903 5902 5902 5902 5902 5902 5901 5901 5901 5901 5901 5900 5900 5900 5899 5899 5898 5898
5908 5908 5907 5907 5907 5907 5907 5907 5907 5907 5906 5906 5906 5906 5905 5905 5905 5904 5904 5904 5904 5903 5903 5903 5903 5902 5902 5902 5901 5901 5901 5901 5901 5900 5900 5900 5900 5899 5899 5898 5898 5897 5896
5909 5908 5908 5908 5908 5908 5908 5907 5907 5907 5907 5906 5906 5906 5906 5905 5905 5904 5904 5904 5903 5903 5903 5902 5902 5902 5901 5901 5901 5901 5901 5900 5900 5900 5900 5899 5899 5898 5898 5897 5897 5896 5896
5910 5909 5909 5909 5909 5909 5908 5908 5908 5907 5907 5907 5906 5906 5906 5905 5905 5904 5904 5903 5903 5902 5902 5902 5902 5901 5901 5900 5900 5900 5900 5900 5899 5899 5899 5898 5898 5897 5896 5896 5896 5895 5894
5911 5910 5910 5910 5909 5909 5909 5908 5908 5908 5907 5907 5907 5906 5906 5905 5905 5904 5904 5903 5903 5902 5901 5901 5901 5900 5900 5899 5899 5899 5899 5898 5898 5898 5898 5897 5896 5896 5895 5895 5894 5893 5893
5911 5911 5911 5910 5910 5909 5909 5908 5908 5907 5907 5907 5906 5906 5906 5905 5905 5904 5903 5903 5902 5901 5900 5900 5899 5899 5899 5898 5898 5898 5897 5897 5897 5896 5896 5895 5895 5894 5893 5893 5892 5891 5890
5911 5911 5911 5910 5910 5909 5909 5908 5908 5907 5907 5906 5906 5905 5905 5904 5903 5903 5902 5902 5901 5900 5899 5899 5898 5898 5897 5897 5896 5896 5896 5895 5895 5895 5894 5894 5893 5892 5891 5891 5890 5889 5888
5912 5911 5910 5910 5909 5909 5908 5907 5907 5907 5906 5905 5905 5904 5903 5903 5902 5901 5901 5900 5899 5898 5897 5897 5896 5896 5895 5895 5895 5894 5894 5894 5893 5892 5892 5891 5890 5890 5889 5888 5887 5886 5885
5911 5910 5909 5909 5909 5908 5908 5907 5906 5906 5905 5904 5903 5902 5902 5901 5900 5900 5899 5898 5897 5896 5896 5895 5894 5894 5893 5892 5892 5892 5891 5891 5890 5889 5889 5888 5887 5886 5886 5885 5884 5883 5882
5910 5909 5908 5908 5907 5907 5906 5906 5905 5904 5903 5902 5901 5901 5900 5899 5898 5897 5897 5896 5895 5894 5893 5892 5892 5891 5891 5890 5889 5888 5888 5887 5887 5886 5885 5884 5884 5883 5882 5881 5880 5879 5878
5909 5908 5907 5906 5906 5905 5904 5904 5903 5902 5902 5901 5899 5899 5898 5897 5896 5895 5894 5893 5892 5891 5890 5890 5889 5888 5888 5887 5886 5885 5885 5884 5883 5883 5882 5880 5880 5879 5878 5877 5876 5875 5873
5907 5906 5905 5904 5904 5903 5902 5902 5901 5900 5899 5898 5897 5896 5895 5894 5894 5893 5892 5891 5889 5888 5887 5887 5886 5885 5884 5884 5883 5882 5881 5880 5879 5878 5877 5876 5875 5874 5873 5872 5871 5870 5868